THORAD AGENA D DEB, 4716

Orbit data source: Space-Track

THORAD AGENA D DEB, 4716 is space debris in SSO originally from a launch on Wed, 08 Apr 1970 UTC launched from the Air Force Western Test Range (AFWTR). Debris objects in space refer to the collection of defunct objects orbiting the Earth. Examples of debris include non-operational satellites, rocket bodies, and fragments generated from explosions, collisions, or faulty payload assembly.

Loading next visibility...
Identifier
4716, 1970-025CA
Orbit
SSO
Country
Flag of USUS
Related business
Manufacturer
Unknown
Mission
Spacecraft
Bus & Motor
Unknown
Mass
Unknown
Launch date (UTC)
1970-04-08 (56 years ago)
Launch vehicle
Unknown
Launch site
Air Force Western Test Range (AFWTR)
Object type
Payload
Rocket body
Debris
Shape & HBR
Unknown shape, 0.3 m
Radar Cross Section
Medium (>0.1 m² and <1 m²)

Expand to show TLE details & history
Last TLE update: 7 hours ago

TLE from 7 hours ago
0 THORAD AGENA D DEB
1 04716U 70025CA  25353.30241851  .00001856  00000-0  11666-2 0  9996
2 04716  99.9598 122.6303 0004817 101.2821 289.2928 14.05873027800220
Epoch: 2025-12-19T07:15Z
TLE epoch observation values (Epoch: 2025-12-19T07:15:28.959Z)
Latitude
30.06747°
Longitude
-80.18988°
Altitude
876.08 km
Speed
7.418 km/s
True Right ascension
07h 47m 18s
True Declination
29° 55' 16"
Sunlit
Object was in full shadow at epoch
Visualization orbit readout
Latitude
Unknown
Longitude
Unknown
Altitude
Unknown
Speed
Unknown
Apparent Right ascension
Unknown
Apparent Declination
Unknown
Sunlit
N/A
Visualization observer readout
Local Sidereal Time
13:07:57
Azimuth
Unknown
Elevation
Unknown
Doppler factor
Unknown
Orbital elements
Apogee altitude
874.262 km
Perigee altitude
867.278 km
Semi-major axis
7,248.907 km
Eccentricity
0.00048
Inclination
99.9598°
RAAN
122.6303°
Arg. of periapsis
101.2821°
True anomaly
289.24069°
Mean anomaly
289.2928°
Eccentric anomaly
289.26675°
Mean motion
3.51669 °/min
Orbital period
102.37 mins
BSTAR
0.0011666
Loading maneuver chart data...
Computing Atmospheric mass density...

Documentation

Showing up to 5 results
|